Location: ????
(55.5675°N, 37.6272°E)
Time: 07:19:55
(UTC+00:00)

Cosmos 1833 Rocket - Pass Details

Date: 14 April 2026
Orbit: 832 x 838 km, 71.0° (Epoch: 10 May)

Event Time Altitude Azimuth Distance (km) Brightness Sun altitude
Exits shadow 21:54:13 28° 115° (ESE) 1,510 3.8 -24.6°
Maximum altitude 21:54:43 29° 106° (ESE) 1,496 3.9 -24.6°
Drops below altitude 10° 21:59:27 10° 49° (NE) 2,452 5.7 -24.5°
Sets 22:02:10 0° 38° (NE) 3,391 6.8 -24.4°
